Regional Weather Roundup
Issued by NWS

Home | Current Version | Previous Version | Graphics & Text | Print | Product List | Glossary On
Versions: 1 2 3 4 5 6 7 8 9 10 11 12 13 14 15 16 17 18 19 20 21 22 23 24 25 26 27 28 29 30 31 32 33 34 35 36 37 38 39 40 41 42 43 44 45 46 47 48 49 50
000
ASUS43 KLMK 251910
RWRKY
KENTUCKY REGIONAL WEATHER ROUNDUP
NATIONAL WEATHER SERVICE LOUISVILLE KY
300 PM EDT SUN JUN 25 2017

NOTE "FAIR" INDICATES FEW OR NO CLOUDS BELOW 12,000 FEET
WITH NO SIGNIFICANT WEATHER AND/OR OBSTRUCTIONS TO VISIBILITY.

KYZ001>023-026-027-061>063-070>075-252000-
WESTERN AND SOUTH CENTRAL KENTUCKY

CITY           SKY/WX    TMP DP  RH WIND       PRES   REMARKS
PADUCAH        SUNNY     83  50  31 NW8       30.20F
HENDERSON      MOSUNNY   82  53  36 W17       30.18
OWENSBORO      NOT AVBL
HOPKINSVILLE   SUNNY     80  48  31 W14       30.21F
BOWLING GREEN  SUNNY     81  50  33 NW7       30.21F
GLASGOW        SUNNY     80  50  34 W5        30.21F
$$

KYZ024-025-028>034-038-045-046-053-252000-
NORTH CENTRAL KENTUCKY

CITY           SKY/WX    TMP DP  RH WIND       PRES   REMARKS
LOUISVILLE/SDF MOSUNNY   83  50  31 W15G28    30.15F
LOUISVILLE/LOU MOSUNNY   81  49  32 W16G24    30.16F
FORT KNOX      MOSUNNY   79  51  37 SW10G20   30.16F
$$

KYZ035>037-039>044-047>052-055>060-089>105-252000-
NORTHEAST KENTUCKY

CITY           SKY/WX    TMP DP  RH WIND       PRES   REMARKS
LEXINGTON      MOSUNNY   79  46  31 NW10G23   30.18F
COVINGTON      MOSUNNY   75  49  39 W17G26    30.13F
FRANKFORT      MOSUNNY   80  48  32 W8G21     30.15F
$$

KYZ054-064>069-076>088-106>120-252000-
SOUTHEAST KENTUCKY

CITY           SKY/WX    TMP DP  RH WIND       PRES   REMARKS
JACKSON        MOSUNNY   75  47  36 CALM      30.19F
LONDON         SUNNY     78  43  28 N7        30.20F
SOMERSET       SUNNY     77  45  31 N7        30.21F
MIDDLESBORO    SUNNY     78  51  39 N8        30.20F
MONTICELLO     CLEAR     77  50  38 N12G20    30.23F
$$





USA.gov is the U.S. government's official web portal to all federal, state and local government web resources and services.